Weather History for PAAK - February, 2014

Change the Weather History Date:

Thursday, February 6, 2014

  Actual Average (PADK) Record (PADK)
Temperature  
Mean Temperature 40 °F -  
Max Temperature 42 °F 36 °F 46 °F (1985)
Min Temperature 37 °F 29 °F 12 °F (1998)
Degree Days  
Heating Degree Days 26    
Moisture  
Dew Point 37 °F    
Average Humidity 86    
Maximum Humidity 93    
Minimum Humidity 81    
Precipitation  
Precipitation 0.00 in - - ()
Sea Level Pressure  
Sea Level Pressure 30.39 in    
Wind  
Wind Speed 23 mph (East)    
Max Wind Speed 29 mph    
Max Gust Speed 38 mph    
Visibility 7 miles    
Events      
Averages and records for this station are not official NWS values.
T = Trace of Precipitation, MM = Missing Value Source: NWS Daily Summary

Daily Weather History Graph

Daily Weather History Graph

Search for Another Location

Airport or City:

Trip Planner

Search our weather history database for the weather conditions in past years. The results will help you decide how hot, cold, wet, or windy it might be!

Date:

Astronomy

Feb. 06, 2014 Rise Set
Actual Time 9:08 AM HAST 6:34 PM HAST
Civil Twilight 8:32 AM HAST 7:10 PM HAST
Nautical Twilight 7:52 AM HAST 7:50 PM HAST
Astronomical Twilight 7:12 AM HAST 8:30 PM HAST
Moon 12:11 PM HAST (2/6) 2:40 AM HAST (2/6)
Length of Visible Light 10h 37m
Length of Day
9h 25m
Waxing Crescent, 51% of the Moon is Illuminated
Feb 6
Waxing Crescent
Feb 14
Full
Feb 22
Last Quarter
Feb 28
New
Mar 8
First Quarter

Hourly Weather History & Observations

Time (HAST) Temp. Windchill Dew Point Humidity Pressure Visibility Wind Dir Wind Speed Gust Speed Precip Events Conditions
12:16 AM 41.0 °F 30.0 °F 37.4 °F 87% 30.31 in 2.5 mi East 28.8 mph 33.4 mph N/A   Overcast
12:36 AM 41.0 °F 30.7 °F 37.4 °F 87% 30.32 in 3.0 mi East 25.3 mph 36.8 mph N/A   Overcast
12:56 AM 41.0 °F 31.6 °F 37.4 °F 87% 30.31 in 3.0 mi East 20.7 mph 33.4 mph N/A   Overcast
1:16 AM 41.0 °F 30.2 °F 37.4 °F 87% 30.32 in 5.0 mi East 27.6 mph 35.7 mph N/A   Overcast
1:36 AM 41.0 °F 30.5 °F 37.4 °F 87% 30.32 in 5.0 mi East 26.5 mph 33.4 mph N/A   Overcast
1:56 AM 41.0 °F 31.1 °F 37.4 °F 87% 30.33 in 4.0 mi East 23.0 mph 32.2 mph N/A   Overcast
2:16 AM 41.0 °F 30.9 °F 37.4 °F 87% 30.32 in 4.0 mi East 24.2 mph 33.4 mph N/A   Overcast
2:36 AM 41.0 °F 30.2 °F 37.4 °F 87% 30.32 in 4.0 mi East 27.6 mph 34.5 mph N/A   Overcast
2:56 AM 39.2 °F 28.0 °F 37.4 °F 93% 30.32 in 5.0 mi East 26.5 mph 33.4 mph N/A   Overcast
3:16 AM 41.0 °F 30.2 °F 37.4 °F 87% 30.32 in 6.0 mi East 27.6 mph 33.4 mph N/A   Overcast
3:36 AM 41.0 °F 30.5 °F 37.4 °F 87% 30.32 in 8.0 mi East 26.5 mph 34.5 mph N/A   Overcast
3:56 AM 41.0 °F 31.1 °F 37.4 °F 87% 30.33 in 4.0 mi East 23.0 mph 31.1 mph N/A   Overcast
4:16 AM 41.0 °F 31.6 °F 37.4 °F 87% 30.32 in 4.0 mi ENE 20.7 mph 32.2 mph N/A   Overcast
4:36 AM 41.0 °F 31.1 °F 37.4 °F 87% 30.32 in 5.0 mi ENE 23.0 mph 32.2 mph N/A   Overcast
4:56 AM 41.0 °F 31.1 °F 37.4 °F 87% 30.32 in 3.0 mi East 23.0 mph 33.4 mph N/A   Overcast
5:16 AM 41.0 °F 32.5 °F 37.4 °F 87% 30.33 in 4.0 mi East 17.3 mph 23.0 mph N/A   Overcast
5:36 AM 41.0 °F 30.7 °F 37.4 °F 87% 30.33 in 8.0 mi ENE 25.3 mph 31.1 mph N/A   Overcast
5:56 AM 42.8 °F 32.5 °F 37.4 °F 81% 30.33 in 10.0 mi East 28.8 mph - N/A   Overcast
6:16 AM 42.8 °F 32.7 °F 37.4 °F 81% 30.33 in 8.0 mi ENE 27.6 mph 35.7 mph N/A   Overcast
6:36 AM 42.8 °F 32.9 °F 37.4 °F 81% 30.33 in 6.0 mi East 26.5 mph 38.0 mph N/A   Overcast
6:56 AM 41.0 °F 30.2 °F 37.4 °F 87% 30.34 in 3.0 mi ENE 27.6 mph 34.5 mph N/A   Overcast
7:16 AM 41.0 °F 30.0 °F 37.4 °F 87% 30.34 in 4.0 mi East 28.8 mph 34.5 mph N/A   Overcast
7:36 AM 41.0 °F 31.1 °F 37.4 °F 87% 30.35 in 5.0 mi East 23.0 mph 34.5 mph N/A   Overcast
7:56 AM 41.0 °F 30.7 °F 37.4 °F 87% 30.36 in 4.0 mi East 25.3 mph 29.9 mph N/A   Overcast
8:16 AM 41.0 °F 30.2 °F 37.4 °F 87% 30.36 in 4.0 mi East 27.6 mph 31.1 mph N/A   Overcast
8:36 AM 41.0 °F 30.9 °F 37.4 °F 87% 30.36 in 5.0 mi East 24.2 mph 32.2 mph N/A   Overcast
8:56 AM 41.0 °F 31.6 °F 37.4 °F 87% 30.37 in 8.0 mi East 20.7 mph 29.9 mph N/A   Overcast
9:16 AM 41.0 °F 31.6 °F 37.4 °F 87% 30.38 in 9.0 mi East 20.7 mph 26.5 mph N/A   Overcast
9:36 AM 41.0 °F 31.4 °F 37.4 °F 87% 30.38 in 10.0 mi ENE 21.9 mph 27.6 mph N/A   Overcast
9:56 AM 41.0 °F 31.1 °F 37.4 °F 87% 30.39 in 10.0 mi East 23.0 mph 31.1 mph N/A   Overcast
10:16 AM 41.0 °F 31.1 °F 37.4 °F 87% 30.39 in 7.0 mi ENE 23.0 mph 32.2 mph N/A   Overcast
10:36 AM 41.0 °F 30.9 °F 37.4 °F 87% 30.40 in 5.0 mi East 24.2 mph 29.9 mph N/A   Overcast
10:56 AM 41.0 °F 30.0 °F 37.4 °F 87% 30.40 in 7.0 mi East 28.8 mph 35.7 mph N/A   Overcast
11:16 AM 41.0 °F 30.7 °F 37.4 °F 87% 30.41 in 5.0 mi ENE 25.3 mph 32.2 mph N/A   Overcast
11:36 AM 41.0 °F 31.4 °F 37.4 °F 87% 30.41 in 9.0 mi East 21.9 mph 28.8 mph N/A   Overcast
11:56 AM 41.0 °F 31.9 °F 37.4 °F 87% 30.41 in 6.0 mi East 19.6 mph 23.0 mph N/A   Overcast
12:16 PM 41.0 °F 31.4 °F 37.4 °F 87% 30.42 in 10.0 mi East 21.9 mph 25.3 mph N/A   Overcast
12:36 PM 41.0 °F 31.6 °F 37.4 °F 87% 30.41 in 10.0 mi East 20.7 mph 28.8 mph N/A   Overcast
12:56 PM 42.8 °F 34.5 °F 37.4 °F 81% 30.42 in 10.0 mi East 18.4 mph 27.6 mph N/A   Overcast
1:16 PM 41.0 °F 31.9 °F 37.4 °F 87% 30.42 in 6.0 mi East 19.6 mph 25.3 mph N/A   Overcast
1:36 PM 41.0 °F 31.4 °F 37.4 °F 87% 30.41 in 10.0 mi East 21.9 mph 27.6 mph N/A   Overcast
1:56 PM 41.0 °F 31.4 °F 37.4 °F 87% 30.40 in 10.0 mi East 21.9 mph 26.5 mph N/A   Overcast
2:16 PM 41.0 °F 31.4 °F 37.4 °F 87% 30.40 in 10.0 mi ENE 21.9 mph 28.8 mph N/A   Overcast
2:36 PM 41.0 °F 31.9 °F 37.4 °F 87% 30.40 in 10.0 mi ENE 19.6 mph 26.5 mph N/A   Overcast
2:56 PM 41.0 °F 31.6 °F 37.4 °F 87% 30.40 in 10.0 mi East 20.7 mph 28.8 mph N/A   Overcast
3:16 PM 41.0 °F 31.4 °F 37.4 °F 87% 30.40 in 9.0 mi East 21.9 mph - N/A   Overcast
3:36 PM 39.2 °F 29.8 °F 37.4 °F 93% 30.40 in 5.0 mi ENE 18.4 mph 23.0 mph N/A   Overcast
3:56 PM 39.2 °F 29.6 °F 37.4 °F 93% 30.41 in 6.0 mi East 19.6 mph - N/A   Overcast
4:16 PM 41.0 °F 31.9 °F 37.4 °F 87% 30.41 in 8.0 mi East 19.6 mph - N/A   Overcast
4:36 PM 41.0 °F 31.9 °F 37.4 °F 87% 30.40 in 9.0 mi East 19.6 mph 24.2 mph N/A   Overcast
4:56 PM 39.2 °F 30.5 °F 37.4 °F 93% 30.42 in 3.0 mi East 16.1 mph - N/A   Overcast
5:16 PM 39.2 °F 29.8 °F 35.6 °F 87% 30.42 in 9.0 mi East 18.4 mph - N/A   Overcast
5:36 PM 39.2 °F 32.0 °F 35.6 °F 87% 30.42 in 4.0 mi East 11.5 mph - N/A   Overcast
5:56 PM 39.2 °F 30.8 °F 35.6 °F 87% 30.42 in 1.8 mi East 15.0 mph - N/A   Overcast
6:16 PM 39.2 °F 30.8 °F 35.6 °F 87% 30.42 in 2.0 mi East 15.0 mph - N/A   Overcast
6:36 PM 39.2 °F 30.8 °F 37.4 °F 93% 30.43 in 2.0 mi East 15.0 mph - N/A   Overcast
6:56 PM 39.2 °F 31.6 °F 35.6 °F 87% 30.44 in 3.0 mi East 12.7 mph - N/A   Overcast
7:16 PM 39.2 °F 31.6 °F 35.6 °F 87% 30.44 in 2.5 mi East 12.7 mph - N/A   Overcast
7:36 PM 39.2 °F 31.6 °F 35.6 °F 87% 30.45 in 2.0 mi ESE 12.7 mph - N/A   Overcast
7:56 PM 39.2 °F 32.0 °F 35.6 °F 87% 30.46 in 9.0 mi East 11.5 mph - N/A   Overcast
8:16 PM 39.2 °F 32.5 °F 35.6 °F 87% 30.46 in 7.0 mi East 10.4 mph - N/A   Overcast
8:36 PM 39.2 °F 31.2 °F 33.8 °F 81% 30.45 in 10.0 mi East 13.8 mph - N/A   Overcast
8:56 PM 39.2 °F 30.5 °F 33.8 °F 81% 30.45 in 10.0 mi East 16.1 mph 19.6 mph N/A   Overcast
9:16 PM 39.2 °F 31.2 °F 33.8 °F 81% 30.45 in 10.0 mi East 13.8 mph - N/A   Overcast
9:36 PM 39.2 °F 30.2 °F 33.8 °F 81% 30.45 in 10.0 mi East 17.3 mph - N/A   Overcast
9:56 PM 39.2 °F 30.8 °F 33.8 °F 81% 30.46 in 10.0 mi East 15.0 mph - N/A   Scattered Clouds
10:16 PM 39.2 °F 31.6 °F 33.8 °F 81% 30.46 in 10.0 mi ESE 12.7 mph - N/A   Scattered Clouds
10:36 PM 39.2 °F 30.8 °F 33.8 °F 81% 30.46 in 10.0 mi ESE 15.0 mph - N/A   Scattered Clouds
10:56 PM 39.2 °F 32.0 °F 33.8 °F 81% 30.47 in 9.0 mi ESE 11.5 mph - N/A   Mostly Cloudy
11:16 PM 37.4 °F 30.3 °F 33.8 °F 87% 30.47 in 10.0 mi SE 10.4 mph - N/A   Mostly Cloudy
11:36 PM 37.4 °F 29.8 °F 33.8 °F 87% 30.47 in 10.0 mi SE 11.5 mph - N/A   Partly Cloudy
11:56 PM 39.2 °F 31.2 °F 33.8 °F 81% 30.46 in 10.0 mi East 13.8 mph - N/A   Clear